This demonstration page uses our WeatherBlox Daily Observations layout. Learn more.

Left ArrowRight Arrow

Hourly Observations for October 9, 2020

Temp ( °F °C ) Dew Point ( °F °C ) Humidity (%) Winds ( mph kmh ) Pressure ( in mb ) Visibility ( mi km ) Precip ( " mm )
12:15 am 00:15 Clear 69 20.5 53 11.5 56 56 SSE 12 19 29.74 1007 10 16 N/A
12:35 am 00:35 Clear 68 20 53 11.5 58 58 S 8 13 29.75 1007 10 16 N/A
12:55 am 00:55 Clear 67 19.4 53 11.5 60 60 SSE 9 15 29.75 1008 10 16 N/A
1:15 am 01:15 Clear 66 18.9 53 11.5 62 62 SSE 7 11 29.76 1008 10 16 N/A
1:35 am 01:35 Clear 66 18.7 53 11.5 63 63 S 9 15 29.75 1007 10 16 N/A
1:55 am 01:55 Clear 65 18.2 53 11.5 65 65 S 9 15 29.74 1007 10 16 N/A
2:15 am 02:15 Clear 64 17.9 52 11.3 65 65 S 7 11 29.75 1007 10 16 N/A
2:35 am 02:35 Clear 64 17.5 53 11.5 68 68 S 8 13 29.75 1007 10 16 N/A
2:55 am 02:55 Clear 63 17.1 53 11.4 69 69 S 9 15 29.74 1007 10 16 N/A
3:15 am 03:15 Clear 62 16.9 52 11.3 70 70 S 8 13 29.73 1007 10 16 N/A
3:35 am 03:35 Clear 63 17 52 11.3 69 69 S 8 13 29.73 1007 10 16 N/A
3:55 am 03:55 Clear 61 16.3 52 11.1 72 72 S 7 11 29.73 1007 10 16 N/A
4:15 am 04:15 Clear 61 16.3 52 11 71 71 S 7 11 29.73 1007 10 16 N/A
4:35 am 04:35 Clear 61 16.1 51 10.8 71 71 SSW 8 13 29.72 1006 10 16 N/A
4:55 am 04:55 Clear 60 15.8 51 10.5 71 71 S 9 15 29.72 1007 10 16 N/A
5:15 am 05:15 Clear 60 15.6 50 10.1 70 70 SSW 8 13 29.72 1007 10 16 N/A
5:35 am 05:35 Clear 60 15.8 50 9.8 68 68 SSW 9 15 29.73 1007 10 16 N/A
5:55 am 05:55 Clear 60 15.8 49 9.6 67 67 SSW 7 11 29.73 1007 10 16 N/A
6:15 am 06:15 Clear 60 15.6 49 9.5 67 67 S 7 11 29.72 1007 10 16 N/A
6:35 am 06:35 Clear 59 15.1 49 9.2 68 68 S 6 9 29.73 1007 10 16 N/A
6:55 am 06:55 Clear 59 14.9 49 9.2 69 69 S 9 15 29.74 1007 10 16 N/A
7:15 am 07:15 Clear 60 15.3 48 9.1 67 67 S 10 17 29.74 1007 10 16 N/A
7:35 am 07:35 Clear 59 15.2 48 9 67 67 SSW 7 11 29.74 1007 10 16 N/A
7:55 am 07:55 Sunny 58 14.2 48 8.9 71 71 SSW 6 9 29.75 1007 10 16 N/A
8:15 am 08:15 Sunny 59 15 48 9 68 68 SSW 8 13 29.76 1008 10 16 N/A
8:35 am 08:35 Sunny 59 15.2 49 9.3 68 68 SW 5 7 29.76 1008 10 16 N/A
8:55 am 08:55 Sunny 61 15.9 49 9.5 66 66 SSW 6 9 29.75 1008 10 16 N/A
9:15 am 09:15 Sunny 63 17.2 49 9.5 61 61 SSW 8 13 29.75 1007 10 16 N/A
9:35 am 09:35 Sunny 65 18.1 49 9.3 57 57 SSW 12 19 29.73 1007 10 16 N/A
9:55 am 09:55 Sunny 67 19.2 48 8.7 51 51 SSW 15 24 29.72 1007 10 16 N/A
10:15 am 10:15 Sunny 67 19.7 46 7.6 46 46 SW 15 24 29.72 1006 10 16 N/A
10:35 am 10:35 Sunny 68 19.9 45 7.1 44 44 SW 14 22 29.72 1006 10 16 N/A
10:55 am 10:55 Sunny 69 20.3 44 6.6 41 41 SW 12 19 29.73 1007 10 16 N/A
11:15 am 11:15 Sunny 70 21.3 43 5.9 37 37 SW 9 15 29.71 1006 10 16 N/A
11:35 am 11:35 Sunny 72 22.1 42 5.8 35 35 SW 8 13 29.70 1006 10 16 N/A
11:55 am 11:55 Sunny 74 23.3 42 5.6 32 32 SSW 8 13 29.68 1005 10 16 N/A
12:15 pm 12:15 Sunny 75 23.8 41 5.2 30 30 SSW 8 13 29.68 1005 10 16 N/A
12:35 pm 12:35 Sunny 77 24.9 42 5.3 28 28 SSW 7 11 29.68 1005 10 16 N/A
12:55 pm 12:55 Sunny 78 25.4 42 5.6 28 28 SSW 8 13 29.66 1005 10 16 N/A
1:15 pm 13:15 Sunny 80 26.6 41 5.2 25 25 S 12 19 29.65 1004 10 16 N/A
1:35 pm 13:35 Sunny 82 27.5 40 4.4 23 23 S 9 15 29.64 1004 10 16 N/A
1:55 pm 13:55 Sunny 83 28.2 40 4.5 22 22 SSW 12 19 29.61 1003 10 16 N/A
2:15 pm 14:15 Sunny 84 29 40 4.6 21 21 SSW 13 20 29.62 1003 10 16 N/A
2:35 pm 14:35 Sunny 85 29.3 40 4.6 21 21 SW 6 9 29.60 1003 10 16 N/A
2:55 pm 14:55 Sunny 85 29.3 39 4 20 20 W 8 13 29.61 1003 10 16 N/A
3:15 pm 15:15 Sunny 85 29.6 38 3.2 18 18 W 6 9 29.60 1002 10 16 N/A
3:35 pm 15:35 Sunny 85 29.6 37 2.8 18 18 SW 3 6 29.60 1002 10 16 N/A
3:55 pm 15:55 Sunny 86 30 37 2.5 17 17 SSW 3 6 29.60 1002 10 16 N/A
4:15 pm 16:15 Sunny 86 30.1 37 2.5 17 17 SSW 5 7 29.59 1002 10 16 N/A
4:35 pm 16:35 Sunny 86 30.2 37 2.6 17 17 SW 6 9 29.59 1002 10 16 N/A
4:55 pm 16:55 Sunny 87 30.3 37 2.5 17 17 SSW 3 6 29.60 1002 10 16 N/A
5:15 pm 17:15 Sunny 86 30.2 37 2.6 17 17 SSW 6 9 29.58 1002 10 16 N/A
5:35 pm 17:35 Sunny 86 30.2 37 2.6 17 17 S 6 9 29.58 1002 10 16 N/A
5:55 pm 17:55 Sunny 85 29.7 37 2.7 18 18 SSW 7 11 29.58 1002 10 16 N/A
6:15 pm 18:15 Sunny 84 28.9 38 3.5 20 20 N N/A 29.59 1002 10 16 N/A
6:35 pm 18:35 Sunny 81 27.2 40 4.4 23 23 N N/A 29.60 1002 7 11 N/A
6:55 pm 18:55 Hazy 77 24.8 40 4.3 27 27 S 5 7 29.63 1003 4 6 N/A
7:15 pm 19:15 Clear 74 23.5 39 3.8 28 28 N N/A 29.64 1004 7 11 N/A
7:35 pm 19:35 Clear 69 20.4 40 4.2 35 35 N N/A 29.67 1005 7 11 N/A
7:55 pm 19:55 Hazy 67 19.6 40 4.7 38 38 N N/A 29.68 1005 5 8 N/A
8:15 pm 20:15 Hazy 63 17.3 41 5.2 45 45 N N/A 29.71 1006 5 8 N/A
8:35 pm 20:35 Hazy 62 16.7 41 5.2 47 47 N N/A 29.73 1007 5 8 N/A
8:55 pm 20:55 Hazy 59 14.8 42 5.7 55 55 NW 5 7 29.75 1007 5 8 N/A
9:15 pm 21:15 Clear 63 17.4 40 4.5 43 43 NNW 8 13 29.77 1008 7 11 N/A
9:35 pm 21:35 Clear 63 17 40 4.5 44 44 NNW 7 11 29.75 1008 7 11 N/A
9:55 pm 21:55 Clear 64 17.5 41 4.8 43 43 N 8 13 29.78 1008 10 16 N/A
10:15 pm 22:15 Clear 64 17.5 41 5.2 44 44 N 8 13 29.77 1008 10 16 N/A
10:35 pm 22:35 Clear 62 16.9 42 5.5 47 47 N 7 11 29.77 1008 10 16 N/A
10:55 pm 22:55 Clear 61 16.1 42 5.7 50 50 N 8 13 29.79 1009 10 16 N/A
11:15 pm 23:15 Clear 60 15.4 43 6 54 54 N 9 15 29.81 1009 10 16 N/A
11:35 pm 23:35 Clear 60 15.3 43 6 54 54 N 7 11 29.81 1009 10 16 N/A
11:55 pm 23:55 Clear 59 15.2 43 6 54 54 N 8 13 29.82 1010 10 16 N/A

Powered by AerisWeather